STARLETTE

Last updated on Wed Jul 09 2025 00:03:32 GMT+0000 (Coordinated Universal Time)

1 07646U 75010A 25189.55597347 -.00000139 00000+0 37629-5 0 9991 2 07646 49.8253 20.9703 0205734 7.8272 352.5752 13.82344052547001
UTC large
Height (km)
Speed (km/s)
/
Latitude / Longitude
Inclination (degrees)
Orbital Period (minutes)
Azimuth
Elevation
Range (km)
Doppler Factor

Next 0 passes for location: London (51.5072 / 0.1276)

Sorry there are no passes over London.